JBU2587 KJFK-KDCA

Flight info

Callsign JBU2587
Flight time N/A
Altitude 22000
Route RBV Q430 COPES Q75 MXE CLIPR3
Aircraft A320/M-SDE3FGHIRWY/LB1

Departure

Time 2026-05-04 19:55
Airport John F. Kennedy International Airport (KJFK)

Arrival

Time N/A
Airport Ronald Reagan Washington National Airport (KDCA)
Time Latitude Longitude Altitude Speed Heading
2026-05-04 19:36 40.64638 -73.77503 23 ft 0 kts 215°
2026-05-04 19:48 40.64654 -73.77488 23 ft 4 kts 215°
2026-05-04 19:48 40.64676 -73.77468 24 ft 4 kts 215°
2026-05-04 19:48 40.64694 -73.77451 23 ft 4 kts 197°
2026-05-04 19:48 40.64713 -73.77456 23 ft 4 kts 129°
2026-05-04 19:49 40.64724 -73.77478 23 ft 0 kts 121°
2026-05-04 19:49 40.64724 -73.77477 23 ft 0 kts 121°
2026-05-04 19:51 40.64718 -73.77464 25 ft 3 kts 121°
2026-05-04 19:51 40.64703 -73.77430 25 ft 6 kts 121°
2026-05-04 19:52 40.64692 -73.77373 24 ft 7 kts 61°
2026-05-04 19:52 40.64740 -73.77376 24 ft 8 kts
2026-05-04 19:52 40.64784 -73.77327 24 ft 10 kts 90°
2026-05-04 19:52 40.64746 -73.77232 23 ft 14 kts 121°
2026-05-04 19:53 40.64684 -73.77119 24 ft 16 kts 141°
2026-05-04 19:53 40.64572 -73.77090 22 ft 18 kts 181°
2026-05-04 19:53 40.64448 -73.77089 22 ft 14 kts 167°
2026-05-04 19:53 40.64414 -73.76996 23 ft 12 kts 104°
2026-05-04 19:54 40.64409 -73.76971 21 ft 2 kts 104°
2026-05-04 19:54 40.64394 -73.76923 22 ft 9 kts 120°
2026-05-04 19:54 40.64358 -73.76874 22 ft 5 kts 194°
2026-05-04 19:54 40.64343 -73.76887 20 ft 10 kts 212°
2026-05-04 19:55 40.64089 -73.77084 25 ft 77 kts 211°
2026-05-04 19:55 40.63447 -73.77585 24 ft 134 kts 211°
2026-05-04 19:55 40.62543 -73.78290 307 ft 155 kts 209°
2026-05-04 19:55 40.61626 -73.79042 1040 ft 155 kts 211°
2026-05-04 19:56 40.60689 -73.79856 1531 ft 171 kts 211°
2026-05-04 19:56 40.59642 -73.80766 1871 ft 194 kts 211°
2026-05-04 19:56 40.58424 -73.81799 2333 ft 219 kts 212°
2026-05-04 19:56 40.57086 -73.82887 3003 ft 235 kts 212°
2026-05-04 19:57 40.55643 -73.84006 3992 ft 239 kts 213°
2026-05-04 19:57 40.54413 -73.85422 4923 ft 242 kts 233°
2026-05-04 19:57 40.53426 -73.87245 5864 ft 246 kts 236°
2026-05-04 19:57 40.52439 -73.89110 6781 ft 250 kts 237°
2026-05-04 19:58 40.51444 -73.91007 7663 ft 254 kts 237°
2026-05-04 19:58 40.50432 -73.92939 8548 ft 258 kts 237°
2026-05-04 19:58 40.49404 -73.94893 9405 ft 262 kts 237°
2026-05-04 19:58 40.48359 -73.96877 10231 ft 267 kts 237°
2026-05-04 19:59 40.47254 -73.98972 10564 ft 290 kts 238°
2026-05-04 19:59 40.46062 -74.01233 10840 ft 312 kts 238°
2026-05-04 19:59 40.44803 -74.03608 11400 ft 321 kts 238°
2026-05-04 19:59 40.43516 -74.06024 12092 ft 325 kts 238°
2026-05-04 20:00 40.42211 -74.08467 12806 ft 328 kts 238°
2026-05-04 20:00 40.41341 -74.10097 13267 ft 331 kts 238°
2026-05-04 20:00 40.39563 -74.13442 14166 ft 336 kts 238°
2026-05-04 20:00 40.38672 -74.15115 14611 ft 339 kts 238°
2026-05-04 20:01 40.37314 -74.17666 15256 ft 343 kts 238°
2026-05-04 20:01 40.35941 -74.20241 15879 ft 346 kts 238°
2026-05-04 20:01 40.33890 -74.24087 16784 ft 351 kts 238°
2026-05-04 20:01 40.28154 -74.34789 19204 ft 366 kts 238°
2026-05-04 20:02 40.22570 -74.45186 21354 ft 383 kts 239°
2026-05-04 20:02 40.21201 -74.48176 21791 ft 384 kts 248°
2026-05-04 20:02 40.20267 -74.51433 21911 ft 385 kts 259°
2026-05-04 20:02 40.19807 -74.54924 21935 ft 394 kts 268°
2026-05-04 20:03 40.19551 -74.58513 21947 ft 397 kts 267°
2026-05-04 20:03 40.19279 -74.62119 21946 ft 399 kts 267°
2026-05-04 20:03 40.18993 -74.65723 21926 ft 399 kts 266°
2026-05-04 20:03 40.18698 -74.69340 21923 ft 399 kts 266°
2026-05-04 20:04 40.18404 -74.72948 21939 ft 399 kts 266°
2026-05-04 20:04 40.18113 -74.76556 21935 ft 399 kts 266°
2026-05-04 20:04 40.17824 -74.80161 21924 ft 398 kts 266°
2026-05-04 20:04 40.17537 -74.83762 21923 ft 398 kts 266°
2026-05-04 20:05 40.17248 -74.87364 21922 ft 398 kts 266°
2026-05-04 20:05 40.16959 -74.90958 21920 ft 398 kts 266°
2026-05-04 20:05 40.15974 -75.03113 21918 ft 398 kts 266°
2026-05-04 20:05 40.14780 -75.17494 21922 ft 397 kts 266°